Location: High Cliff State Park
(44.1557°N, 88.2948°W)
Time: 02:02:14
(UTC-06:00)

Amateur Radio Satellites - All Passes

Search period start: 05 March 2015 01:32
Search period end: 06 March 2015 01:32
Location: High Cliff State Park, 44.1557°N, 88.2948°W

Satellite Date Start Highest point End Downlink Frequencies (MHz)
Time Altitude Azimuth
RS-15 05 Mar 02:09:39 02:19:01 30° 341° (NNW) 02:28:32 29.354- 29.394
KKS-1 05 Mar 02:10:28 02:14:50 50° 260° (W) 02:19:13 437.445
STARS 05 Mar 02:10:50 02:15:16 76° 256° (WSW) 02:19:43 437.465
M-CUBED/EXP-1 PRIME 05 Mar 02:12:09 02:14:03 15° 58° (ENE) 02:16:05 437.505
AUBIESAT-1 05 Mar 02:12:15 02:13:51 13° 58° (ENE) 02:15:37 437.475
AO-7 05 Mar 02:22:19 02:26:02 14° 84° (E) 02:30:21 29.400- 29.500
BEESAT 3 05 Mar 02:23:57 02:26:37 16° 248° (WSW) 02:29:07 437.485
YUBILEINY 05 Mar 02:27:25 02:36:11 63° 76° (ENE) 02:44:56 435.215
HORYU 2 05 Mar 02:28:41 02:31:39 18° 91° (E) 02:34:46 437.375
SO-50 05 Mar 02:29:42 02:33:35 24° 321° (NW) 02:37:28 436.795
Gurwin Techsat 1B 05 Mar 02:54:21 02:59:41 72° 287° (WNW) 03:04:58 435.225
AIST 2 05 Mar 03:03:39 03:06:50 20° 247° (WSW) 03:09:52 435.215
Oscar 19 05 Mar 03:04:39 03:08:02 18° 299° (WNW) 03:11:16 437.125/150
ITAMSAT 1 05 Mar 03:07:29 03:12:25 43° 291° (WNW) 03:17:18 435.822/435.867
PCSat 05 Mar 03:37:42 03:42:09 25° 43° (NE) 03:46:39 145.827
MOZHAYETS 4 05 Mar 03:40:00 03:44:32 71° 75° (ENE) 03:49:08
AUBIESAT-1 05 Mar 03:45:11 03:48:23 44° 256° (WSW) 03:51:45 437.475
M-CUBED/EXP-1 PRIME 05 Mar 03:45:35 03:48:43 38° 257° (WSW) 03:52:00 437.505
JAS-2 05 Mar 03:57:10 04:04:30 53° 98° (E) 04:12:10 435.910
HORYU 2 05 Mar 04:04:21 04:08:38 47° 289° (WNW) 04:12:54 437.375
CUBESAT XI-V 05 Mar 04:11:44 04:14:08 14° 62° (ENE) 04:16:44 437.345
AO-7 05 Mar 04:12:12 04:20:32 73° 106° (ESE) 04:28:48 29.400- 29.500
YUBILEINY 05 Mar 04:25:02 04:32:31 31° 276° (W) 04:39:44 435.215
RS-15 05 Mar 04:26:45 04:35:57 28° 15° (NNE) 04:45:35 29.354- 29.394
Gurwin Techsat 1B 05 Mar 04:37:06 04:38:50 11° 304° (WNW) 04:40:17 435.225
Cubesat XI-IV 05 Mar 05:15:43 05:19:43 22° 91° (E) 05:23:50 437.490
STRAND 1 05 Mar 05:18:44 05:23:30 41° 69° (ENE) 05:28:22 437.568
MOZHAYETS 4 05 Mar 05:20:20 05:22:23 12° 273° (W) 05:24:11
PCSat 05 Mar 05:20:39 05:26:01 61° 243° (WSW) 05:31:20 145.827
PRISM 05 Mar 05:23:08 05:27:15 71° 75° (ENE) 05:31:27 437.425
CUTE-I 05 Mar 05:23:40 05:27:59 25° 92° (E) 05:32:23 437.470
AIST 1 05 Mar 05:27:06 05:29:00 13° 85° (E) 05:31:08
JAS-2 05 Mar 05:42:35 05:49:21 38° 295° (WNW) 05:56:19 435.910
CUBESAT XI-V 05 Mar 05:46:22 05:51:03 74° 259° (WSW) 05:55:48 437.345
AO-7 05 Mar 06:05:50 06:12:45 30° 305° (NW) 06:19:27 29.400- 29.500
RS-15 05 Mar 06:40:12 06:51:23 60° 45° (NE) 07:03:07 29.354- 29.394
GONETS M04 05 Mar 06:41:09 06:47:01 20° 58° (ENE) 06:53:18
Cubesat XI-IV 05 Mar 06:54:57 07:00:12 53° 289° (WNW) 07:05:23 437.490
STRAND 1 05 Mar 06:58:33 07:02:53 26° 267° (W) 07:07:11 437.568
AIST 1 05 Mar 07:01:53 07:06:12 59° 281° (W) 07:10:34
PRISM 05 Mar 07:02:20 07:03:21 11° 273° (W) 07:04:07 437.425
CUTE-I 05 Mar 07:03:12 07:08:19 46° 291° (WNW) 07:13:24 437.470
O/OREOS (USA 219) 05 Mar 07:21:13 07:22:54 12° 99° (E) 07:24:52 437.305
SO-50 05 Mar 07:38:30 07:41:42 17° 33° (NNE) 07:45:00 436.795
ISS 05 Mar 07:58:00 08:01:09 54° 144° (SE) 08:04:19 145.825
GOMX 1 05 Mar 08:02:58 08:06:36 26° 93° (E) 08:10:09 467.674
SEEDS 05 Mar 08:11:25 08:14:57 26° 94° (E) 08:18:32 437.485
BRITE-PL 05 Mar 08:12:07 08:16:31 50° 98° (E) 08:20:39 437.365/2234.400
CINEMA 3 05 Mar 08:13:13 08:14:40 12° 87° (E) 08:16:20 145.822/145.860
HO-68 05 Mar 08:17:33 08:24:21 44° 98° (E) 08:31:12 435.675
CANX-2 05 Mar 08:18:51 08:22:52 40° 97° (E) 08:26:55 2200.000
DOVE 4 05 Mar 08:24:19 08:28:03 30° 95° (E) 08:31:44 437.250
UNISAT 6 05 Mar 08:26:01 08:28:32 16° 64° (ENE) 08:31:11 437.425
GONETS M04 05 Mar 08:36:38 08:45:27 86° 83° (E) 08:54:17
CUTE 1.7 + AOD 2 05 Mar 08:36:54 08:41:07 58° 100° (E) 08:45:20 437.475
TIGRISAT 05 Mar 08:48:33 08:52:04 25° 68° (ENE) 08:55:38 435.000
POPSAT HIP 1 05 Mar 08:51:28 08:54:01 16° 64° (ENE) 08:56:43 437.405
POLYITAN 1 05 Mar 08:52:19 08:54:58 17° 64° (ENE) 08:57:44 437.675
RS-15 05 Mar 08:52:57 09:03:44 48° 248° (WSW) 09:14:48 29.354- 29.394
O/OREOS (USA 219) 05 Mar 08:57:13 09:01:47 73° 295° (WNW) 09:06:24 437.305
ANTELSAT 05 Mar 09:03:15 09:07:13 36° 70° (ENE) 09:11:10 437.575/2403.000
UWE-3 05 Mar 09:06:36 09:09:47 21° 93° (E) 09:13:03 435.000/436.395/437.385
AAUSAT CUBESAT 2 05 Mar 09:10:04 09:14:17 82° 102° (ESE) 09:18:30 437.432
NANOSAT C BR1 05 Mar 09:12:25 09:15:55 25° 67° (ENE) 09:19:27 145.865
COMPASS 1 05 Mar 09:14:57 09:19:11 77° 284° (WNW) 09:23:23 437.405
SO-50 05 Mar 09:18:08 09:23:06 79° 54° (NE) 09:28:01 436.795
Oscar 11 05 Mar 09:23:27 09:27:42 54° 100° (E) 09:31:58 145.826/435.025
ISS 05 Mar 09:34:45 09:37:40 31° 342° (NNW) 09:40:36 145.825
BUGSAT 1 05 Mar 09:40:43 09:44:38 37° 70° (ENE) 09:48:37 437.445
GOMX 1 05 Mar 09:41:01 09:44:47 28° 292° (WNW) 09:48:22 467.674
CUSAT 1 05 Mar 09:44:01 09:45:55 18° 72° (ENE) 09:47:54 437.405
QB50P1 05 Mar 09:45:14 09:49:25 56° 73° (ENE) 09:53:37 145.935-145.965
SEEDS 05 Mar 09:47:05 09:50:48 29° 291° (WNW) 09:54:27 437.485
CINEMA 3 05 Mar 09:48:18 09:52:26 60° 286° (WNW) 09:56:30 145.822/145.860
CUBEBUG 2 05 Mar 09:49:31 09:53:41 77° 101° (ESE) 09:57:52 437.445
QB50P2 05 Mar 09:50:04 09:54:18 64° 74° (ENE) 09:58:34 145.880/145.840
BRITE-PL 05 Mar 09:51:42 09:54:40 17° 297° (WNW) 09:57:23 437.365/2234.400
DX 1 05 Mar 09:52:45 09:57:01 50° 100° (E) 10:01:15 434.975-435.025
CANX-2 05 Mar 09:55:25 09:58:36 20° 294° (WNW) 10:01:40 2200.000
HUMSAT D 05 Mar 09:57:08 10:00:51 32° 96° (E) 10:04:35 437.325/437.525
UNISAT 6 05 Mar 10:00:39 10:04:58 56° 259° (W) 10:09:13 437.425
DELFI C3 05 Mar 10:00:42 10:04:48 72° 285° (WNW) 10:08:52 145.870
DOVE 4 05 Mar 10:02:18 10:05:47 24° 293° (WNW) 10:09:07 437.250
DUCHIFAT 1 05 Mar 10:02:30 10:06:47 84° 76° (ENE) 10:11:05 145.980
CUBEBUG 1 05 Mar 10:04:32 10:06:23 13° 88° (E) 10:08:27 437.445
HO-68 05 Mar 10:05:26 10:12:03 40° 297° (WNW) 10:18:34 435.675
AISAT 05 Mar 10:09:31 10:13:31 32° 96° (E) 10:17:31 437.250
CUTE 1.7 + AOD 2 05 Mar 10:14:11 10:16:39 15° 296° (WNW) 10:18:58 437.475
FUNcube-1 05 Mar 10:14:12 10:18:22 85° 284° (WNW) 10:22:33 145.935
ZACube-1 05 Mar 10:16:33 10:20:43 79° 284° (WNW) 10:24:54 437.345
VELOX 1 05 Mar 10:17:31 10:21:41 38° 97° (E) 10:25:49 145.980
UKube-1 05 Mar 10:18:32 10:22:54 89° 285° (WNW) 10:27:14 .
TIGRISAT 05 Mar 10:24:48 10:28:45 32° 264° (W) 10:32:37 435.000
POPSAT HIP 1 05 Mar 10:25:20 10:29:33 54° 260° (W) 10:33:46 437.405
POLYITAN 1 05 Mar 10:26:22 10:30:34 51° 261° (W) 10:34:45 437.675
GONETS M04 05 Mar 10:35:09 10:41:19 21° 281° (W) 10:47:05
ANTELSAT 05 Mar 10:40:41 10:44:10 22° 267° (W) 10:47:30 437.575/2403.000
O/OREOS (USA 219) 05 Mar 10:40:52 10:42:10 11° 316° (NW) 10:43:17 437.305
UWE-3 05 Mar 10:42:41 10:46:27 33° 290° (WNW) 10:50:12 435.000/436.395/437.385
ESTCUBE 1 05 Mar 10:44:03 10:48:17 37° 97° (E) 10:52:30 437.505/2401.250
NANOSAT C BR1 05 Mar 10:47:50 10:51:41 31° 264° (W) 10:55:30 145.865
AAUSAT CUBESAT 2 05 Mar 10:48:18 10:49:23 11° 298° (WNW) 10:50:14 437.432
50 SAT 05 Mar 10:58:32 11:02:29 71° 285° (WNW) 11:06:26 437.505
SO-50 05 Mar 11:00:16 11:03:07 15° 250° (WSW) 11:05:45 436.795
Oscar 11 05 Mar 11:00:47 11:03:31 16° 296° (WNW) 11:06:07 145.826/435.025
Oscar 19 05 Mar 11:05:42 11:08:45 17° 61° (ENE) 11:11:59 437.125/150
ISS 05 Mar 11:12:11 11:14:42 21° 2° (N) 11:17:15 145.825
DANDE 05 Mar 11:14:23 11:16:27 20° 265° (W) 11:18:29 436.750
BUGSAT 1 05 Mar 11:16:59 11:20:17 21° 268° (W) 11:23:30 437.445
QB50P1 05 Mar 11:23:20 11:25:43 14° 271° (W) 11:27:56 145.935-145.965
CUBEBUG 2 05 Mar 11:28:41 11:29:53 11° 298° (WNW) 11:30:53 437.445
QB50P2 05 Mar 11:28:49 11:30:44 12° 272° (W) 11:32:24 145.880/145.840
DX 1 05 Mar 11:29:58 11:32:56 18° 296° (WNW) 11:35:45 434.975-435.025
HUMSAT D 05 Mar 11:33:14 11:36:31 23° 293° (WNW) 11:39:42 437.325/437.525
CUBEBUG 1 05 Mar 11:38:55 11:43:18 65° 286° (WNW) 11:47:38 437.445
AISAT 05 Mar 11:46:18 11:50:02 26° 293° (WNW) 11:53:40 437.250
TISAT 1 05 Mar 11:52:41 11:56:41 40° 98° (E) 12:00:39 437.305
VELOX 1 05 Mar 11:54:33 11:58:05 23° 294° (WNW) 12:01:29 145.980
UKube-1 05 Mar 11:57:32 11:58:26 10° 301° (WNW) 11:59:07 .
SPROUT 05 Mar 11:59:19 12:03:33 55° 100° (E) 12:07:45 437.525
ESTCUBE 1 05 Mar 12:21:17 12:25:00 24° 294° (WNW) 12:28:38 437.505/2401.250
Gurwin Techsat 1B 05 Mar 12:38:07 12:42:37 29° 66° (ENE) 12:47:12 435.225
Oscar 19 05 Mar 12:42:27 12:47:35 73° 257° (WSW) 12:52:44 437.125/150
ITAMSAT 1 05 Mar 12:47:39 12:52:36 46° 70° (ENE) 12:57:37 435.822/435.867
ISS 05 Mar 12:48:37 12:51:40 39° 22° (NNE) 12:54:44 145.825
SWISSCUBE 05 Mar 12:53:22 12:57:39 32° 95° (E) 13:01:58 437.505
BEESAT 05 Mar 13:01:21 13:05:44 35° 96° (E) 13:10:09 436.000
AO-7 05 Mar 13:22:16 13:28:50 28° 54° (NE) 13:35:36 29.400- 29.500
HORYU 2 05 Mar 13:28:46 13:32:01 21° 65° (ENE) 13:35:24 437.375
TISAT 1 05 Mar 13:29:09 13:32:15 20° 294° (WNW) 13:35:14 437.305
ITUPSAT 1 05 Mar 13:30:25 13:35:15 67° 102° (ESE) 13:40:03 437.325
SPROUT 05 Mar 13:36:36 13:39:16 16° 296° (WNW) 13:41:45 437.525
YUBILEINY 05 Mar 13:39:56 13:43:04 13° 74° (ENE) 13:46:52 435.215
STARS 05 Mar 14:00:17 14:03:12 18° 91° (E) 14:06:14 437.465
KKS-1 05 Mar 14:00:27 14:04:14 27° 95° (E) 14:08:02 437.445
JAS-2 05 Mar 14:12:48 14:17:14 24° 59° (ENE) 14:22:14 435.910
Gurwin Techsat 1B 05 Mar 14:17:30 14:22:29 40° 263° (W) 14:27:28 435.225
ISS 05 Mar 14:25:04 14:28:02 34° 220° (SW) 14:30:59 145.825
ITAMSAT 1 05 Mar 14:28:06 14:32:22 24° 267° (W) 14:36:33 435.822/435.867
SWISSCUBE 05 Mar 14:31:15 14:35:29 31° 293° (WNW) 14:39:39 437.505
BEESAT 05 Mar 14:39:23 14:43:30 28° 293° (WNW) 14:47:32 436.000
HORYU 2 05 Mar 15:04:15 15:08:28 41° 262° (W) 15:12:41 437.375
ITUPSAT 1 05 Mar 15:09:38 15:12:41 16° 298° (WNW) 15:15:33 437.325
BEESAT 2 05 Mar 15:11:50 15:13:01 11° 109° (ESE) 15:14:25 435.950
AO-7 05 Mar 15:12:35 15:20:57 78° 253° (WSW) 15:29:20 29.400- 29.500
AUBIESAT-1 05 Mar 15:26:16 15:27:19 11° 93° (E) 15:28:39 437.475
M-CUBED/EXP-1 PRIME 05 Mar 15:26:21 15:28:08 12° 95° (E) 15:30:12 437.505
YUBILEINY 05 Mar 15:29:45 15:38:21 68° 93° (E) 15:47:06 435.215
MOZHAYETS 4 05 Mar 15:34:58 15:37:38 15° 89° (E) 15:40:30
STARS 05 Mar 15:35:45 15:39:58 46° 289° (WNW) 15:44:08 437.465
KKS-1 05 Mar 15:36:58 15:40:54 31° 292° (WNW) 15:44:45 437.445
VERMONT LUNAR 05 Mar 15:55:53 15:58:28 20° 157° (SSE) 16:01:07 437.305
JAS-2 05 Mar 15:56:18 16:01:49 59° 261° (W) 16:08:06 435.910
BEESAT 3 05 Mar 16:17:25 16:21:28 63° 121° (ESE) 16:25:35 437.485
PHONESAT 2.4 05 Mar 16:22:48 16:25:15 17° 154° (SSE) 16:27:46 2401.200-2431.200
Cubesat XI-IV 05 Mar 16:38:56 16:43:54 41° 69° (ENE) 16:48:58 437.490
BEESAT 2 05 Mar 16:46:31 16:50:39 77° 305° (NW) 16:54:51 435.950
CUTE-I 05 Mar 16:46:47 16:51:54 47° 70° (ENE) 16:57:04 437.470
AUBIESAT-1 05 Mar 16:58:20 17:02:40 84° 289° (WNW) 17:07:18 437.475
M-CUBED/EXP-1 PRIME 05 Mar 16:59:09 17:03:28 74° 290° (WNW) 17:08:05 437.505
AIST 2 05 Mar 17:01:53 17:06:04 60° 121° (ESE) 17:10:19 435.215
AIST 1 05 Mar 17:07:40 17:11:48 38° 75° (ENE) 17:15:55
AO-7 05 Mar 17:10:18 17:15:17 16° 275° (W) 17:19:44 29.400- 29.500
MOZHAYETS 4 05 Mar 17:10:45 17:15:19 59° 287° (WNW) 17:19:54
O/OREOS (USA 219) 05 Mar 17:26:47 17:30:55 32° 57° (ENE) 17:35:03 437.305
YUBILEINY 05 Mar 17:28:33 17:36:02 29° 296° (WNW) 17:43:21 435.215
STRAND 1 05 Mar 17:29:53 17:31:34 12° 86° (E) 17:33:34 437.568
VERMONT LUNAR 05 Mar 17:32:37 17:35:56 42° 173° (S) 17:39:16 437.305
CUBESAT XI-V 05 Mar 17:42:12 17:46:04 25° 93° (E) 17:50:00 437.345
BRITE-PL 05 Mar 17:49:07 17:50:51 12° 60° (ENE) 17:52:49 437.365/2234.400
BEESAT 3 05 Mar 17:56:59 17:59:58 19° 321° (NW) 18:02:55 437.485
PHONESAT 2.4 05 Mar 17:59:46 18:03:13 40° 170° (S) 18:06:40 2401.200-2431.200
Cubesat XI-IV 05 Mar 18:19:33 18:24:10 28° 266° (W) 18:28:45 437.490
PCSat 05 Mar 18:23:41 18:26:04 13° 104° (ESE) 18:28:44 145.827
BEESAT 2 05 Mar 18:27:24 18:29:35 14° 326° (NW) 18:31:40 435.950
CUTE-I 05 Mar 18:27:52 18:32:15 24° 268° (W) 18:36:33 437.470
AUBIESAT-1 05 Mar 18:35:37 18:37:01 11° 304° (WNW) 18:38:15 437.475
PRISM 05 Mar 18:39:41 18:43:57 85° 288° (WNW) 18:48:10 437.425
AIST 2 05 Mar 18:41:48 18:45:04 20° 320° (NW) 18:48:17 435.215
AIST 1 05 Mar 18:45:59 18:49:14 20° 272° (W) 18:52:20
HO-68 05 Mar 18:47:49 18:54:17 40° 63° (ENE) 19:00:52 435.675
SEEDS 05 Mar 19:05:32 19:08:47 23° 67° (ENE) 19:12:07 437.485
O/OREOS (USA 219) 05 Mar 19:06:18 19:10:17 29° 255° (WSW) 19:14:11 437.305
STRAND 1 05 Mar 19:06:24 19:11:36 88° 287° (WNW) 19:16:45 437.568
VERMONT LUNAR 05 Mar 19:10:15 19:13:33 39° 190° (S) 19:16:51 437.305
GOMX 1 05 Mar 19:11:36 19:16:30 40° 71° (ENE) 19:21:11 467.674
CANX-2 05 Mar 19:13:29 19:17:19 35° 70° (ENE) 19:21:11 2200.000
CINEMA 3 05 Mar 19:16:05 19:18:56 17° 65° (ENE) 19:21:53 145.822/145.860
CUBESAT XI-V 05 Mar 19:19:18 19:23:39 36° 290° (WNW) 19:27:54 437.345
BRITE-PL 05 Mar 19:23:06 19:28:40 74° 76° (ENE) 19:33:59 437.365/2234.400
DOVE 4 05 Mar 19:30:45 19:35:28 42° 71° (ENE) 19:40:00 437.250
CUTE 1.7 + AOD 2 05 Mar 19:31:19 19:35:22 49° 72° (ENE) 19:39:28 437.475
PHONESAT 2.4 05 Mar 19:37:54 19:41:23 44° 187° (S) 19:44:51 2401.200-2431.200
ZACube-1 05 Mar 19:41:24 19:42:23 11° 62° (ENE) 19:43:34 437.345
UKube-1 05 Mar 19:42:26 19:43:33 11° 60° (ENE) 19:44:54 .
GONETS M04 05 Mar 19:46:22 19:51:55 20° 79° (E) 19:57:53
AAUSAT CUBESAT 2 05 Mar 20:02:26 20:06:32 67° 75° (ENE) 20:10:40 437.432
PCSat 05 Mar 20:03:23 20:08:49 89° 311° (NW) 20:14:18 145.827
UWE-3 05 Mar 20:05:31 20:08:57 23° 68° (ENE) 20:12:23 435.000/436.395/437.385
COMPASS 1 05 Mar 20:07:41 20:11:50 88° 78° (ENE) 20:16:02 437.405
Oscar 11 05 Mar 20:19:39 20:23:48 50° 73° (ENE) 20:28:00 145.826/435.025
HO-68 05 Mar 20:35:11 20:41:58 44° 262° (W) 20:48:46 435.675
SEEDS 05 Mar 20:40:40 20:44:28 33° 264° (W) 20:48:16 437.485
STRAND 1 05 Mar 20:47:38 20:50:07 13° 302° (WNW) 20:52:21 437.568
VERMONT LUNAR 05 Mar 20:48:36 20:50:58 17° 205° (SSW) 20:53:17 437.305
CUBEBUG 2 05 Mar 20:49:05 20:53:32 78° 76° (ENE) 20:57:52 437.445
DX 1 05 Mar 20:49:41 20:53:57 54° 73° (ENE) 20:58:16 434.975-435.025
DELFI C3 05 Mar 20:49:56 20:53:58 86° 72° (ENE) 20:58:02 145.870
CANX-2 05 Mar 20:50:06 20:53:23 21° 268° (W) 20:56:36 2200.000
GOMX 1 05 Mar 20:50:12 20:54:44 27° 266° (W) 20:58:59 467.674
HUMSAT D 05 Mar 20:50:50 20:54:25 29° 69° (ENE) 20:58:02 437.325/437.525
CINEMA 3 05 Mar 20:51:10 20:55:50 58° 260° (W) 21:00:18 145.822/145.860
CUBEBUG 1 05 Mar 21:02:27 21:04:50 15° 62° (ENE) 21:07:23 437.445
BRITE-PL 05 Mar 21:04:11 21:07:43 16° 272° (W) 21:10:55 437.365/2234.400
RS-15 05 Mar 21:08:35 21:16:47 27° 104° (ESE) 21:25:29 29.354- 29.394
AISAT 05 Mar 21:08:54 21:13:01 37° 69° (ENE) 21:17:10 437.250
CUTE 1.7 + AOD 2 05 Mar 21:09:06 21:11:39 15° 271° (W) 21:14:05 437.475
DOVE 4 05 Mar 21:09:16 21:13:23 24° 267° (W) 21:17:16 437.250
FUNcube-1 05 Mar 21:11:20 21:15:41 89° 266° (W) 21:19:57 145.935
ZACube-1 05 Mar 21:13:53 21:18:14 83° 257° (WSW) 21:22:30 437.345
UKube-1 05 Mar 21:14:45 21:19:07 87° 260° (W) 21:23:30 .
PHONESAT 2.4 05 Mar 21:16:34 21:19:24 21° 203° (SSW) 21:22:12 2401.200-2431.200
VELOX 1 05 Mar 21:16:38 21:20:51 42° 70° (ENE) 21:25:07 145.980
GONETS M04 05 Mar 21:39:02 21:47:44 88° 279° (W) 21:56:29
UWE-3 05 Mar 21:41:19 21:45:22 35° 263° (W) 21:49:19 435.000/436.395/437.385
AAUSAT CUBESAT 2 05 Mar 21:41:27 21:42:44 11° 273° (W) 21:43:47 437.432
ESTCUBE 1 05 Mar 21:45:11 21:49:25 41° 70° (ENE) 21:53:43 437.505/2401.250
50 SAT 05 Mar 21:46:23 21:50:22 84° 75° (ENE) 21:54:20 437.505
DUCHIFAT 1 05 Mar 21:48:07 21:49:40 12° 88° (E) 21:51:26 145.980
PCSat 05 Mar 21:49:13 21:53:04 19° 322° (NW) 21:56:49 145.827
UNISAT 6 05 Mar 21:51:25 21:54:58 25° 94° (E) 21:58:37 437.425
Oscar 11 05 Mar 21:57:40 22:00:21 16° 270° (W) 22:02:53 145.826/435.025
POPSAT HIP 1 05 Mar 22:09:51 22:13:04 21° 93° (E) 22:16:21 437.405
POLYITAN 1 05 Mar 22:11:03 22:14:22 22° 93° (E) 22:17:44 437.675
TIGRISAT 05 Mar 22:14:25 22:18:30 42° 98° (E) 22:22:40 435.000
HUMSAT D 05 Mar 22:26:43 22:30:13 25° 266° (W) 22:33:39 437.325/437.525
DX 1 05 Mar 22:27:54 22:30:36 15° 270° (W) 22:33:09 434.975-435.025
ANTELSAT 05 Mar 22:29:51 22:34:09 65° 102° (ESE) 22:38:31 437.575/2403.000
CUBEBUG 2 05 Mar 22:30:03 22:30:51 10° 273° (W) 22:31:23 437.445
NANOSAT C BR1 05 Mar 22:31:09 22:35:03 36° 97° (E) 22:38:56 145.865
CUBEBUG 1 05 Mar 22:36:19 22:40:45 65° 259° (W) 22:45:12 437.445
DANDE 05 Mar 22:43:39 22:48:56 30° 96° (E) 22:53:11 436.750
AISAT 05 Mar 22:46:05 22:49:45 23° 267° (W) 22:53:20 437.250
TISAT 1 05 Mar 22:46:27 22:50:24 38° 71° (ENE) 22:54:24 437.305
CUSAT 1 05 Mar 22:52:45 22:58:08 41° 98° (E) 23:02:17 437.405
VELOX 1 05 Mar 22:54:16 22:57:40 20° 268° (W) 23:00:56 145.980
SPROUT 05 Mar 22:54:50 22:59:02 51° 73° (ENE) 23:03:17 437.525
BUGSAT 1 05 Mar 22:56:51 23:00:54 51° 99° (E) 23:04:54 437.445
BEESAT 3 05 Mar 22:58:58 23:00:26 12° 32° (NNE) 23:02:01 437.485
ITUPSAT 1 05 Mar 23:04:27 23:06:15 12° 59° (ENE) 23:08:15 437.325
QB50P1 05 Mar 23:04:43 23:09:00 86° 108° (ESE) 23:13:12 145.935-145.965
QB50P2 05 Mar 23:09:51 23:14:07 82° 283° (WNW) 23:18:19 145.880/145.840
RS-15 05 Mar 23:17:03 23:27:59 84° 306° (NW) 23:39:09 29.354- 29.394
DUCHIFAT 1 05 Mar 23:21:50 23:26:02 63° 286° (WNW) 23:30:10 145.980
ESTCUBE 1 05 Mar 23:23:01 23:26:31 21° 268° (W) 23:29:56 437.505/2401.250
BEESAT 2 05 Mar 23:27:41 23:30:20 16° 37° (NE) 23:33:04 435.950
UNISAT 6 05 Mar 23:27:59 23:31:50 31° 290° (WNW) 23:35:39 437.425
SO-50 05 Mar 23:35:47 23:38:43 17° 111° (ESE) 23:41:52 436.795
GONETS M04 05 Mar 23:39:52 23:46:07 20° 302° (WNW) 23:52:02
POPSAT HIP 1 05 Mar 23:45:13 23:49:06 35° 290° (WNW) 23:52:55 437.405
AIST 2 05 Mar 23:45:25 23:47:09 12° 31° (NNE) 23:49:00 435.215
POLYITAN 1 05 Mar 23:46:34 23:50:25 33° 290° (WNW) 23:54:11 437.675
TIGRISAT 05 Mar 23:51:55 23:55:02 19° 294° (WNW) 23:58:05 435.000
SWISSCUBE 06 Mar 00:01:23 00:05:53 43° 70° (ENE) 00:10:28 437.505
NANOSAT C BR1 06 Mar 00:07:27 00:10:45 22° 294° (WNW) 00:13:55 145.865
ANTELSAT 06 Mar 00:08:16 00:10:32 14° 297° (WNW) 00:12:38 437.575/2403.000
BEESAT 06 Mar 00:09:16 00:13:50 48° 71° (ENE) 00:18:28 436.000
TISAT 1 06 Mar 00:23:07 00:26:23 20° 268° (W) 00:29:34 437.305
DANDE 06 Mar 00:26:38 00:32:15 35° 284° (WNW) 00:36:32 436.750
SPROUT 06 Mar 00:32:47 00:35:30 16° 270° (W) 00:38:04 437.525
BUGSAT 1 06 Mar 00:33:28 00:36:02 16° 296° (WNW) 00:38:26 437.445
BEESAT 3 06 Mar 00:35:17 00:39:25 63° 53° (NE) 00:43:28 437.485
CUSAT 1 06 Mar 00:36:46 00:40:59 22° 287° (WNW) 00:44:20 437.405
ITUPSAT 1 06 Mar 00:38:41 00:43:29 90° 68° (ENE) 00:48:20 437.325
QB50P1 06 Mar 00:43:27 00:44:17 10° 299° (WNW) 00:44:53 145.935-145.965
Oscar 19 06 Mar 00:52:41 00:57:20 35° 96° (E) 01:02:03 437.125/150
STARS 06 Mar 00:58:58 01:02:10 20° 65° (ENE) 01:05:30 437.465
KKS-1 06 Mar 01:00:10 01:04:04 31° 68° (ENE) 01:08:02 437.445
ITAMSAT 1 06 Mar 01:00:32 01:03:06 14° 87° (E) 01:05:57 435.822/435.867
BEESAT 2 06 Mar 01:04:53 01:09:04 78° 237° (WSW) 01:13:10 435.950
SO-50 06 Mar 01:14:12 01:18:48 63° 308° (NW) 01:23:35 436.795
AIST 2 06 Mar 01:22:24 01:26:40 63° 52° (NE) 01:30:52 435.215
